• Join FlightAware (Why Join?)
  • Login
  • US Flag GB Flag 
17:58 EST


 

Airport Tracker/Info


-or-


 

Live Flight TrackerFlight Track Log ✈ N400PU ✈ 27-May-2014 ✈ KHUT - KLAF

Flight Track Log - Related Links

Times and Time Zones

All times are in EDT time to prevent confusion due to time zone crossing. See the N400PU flight status page for this flight to view local times or setup timezone preferences in your user account.

Time Position Orientation Groundspeed Altitude Reporting Facility
EDT Latitude Longitude Course Direction KTS MPH feet Rate Location/Type
09:12 38.0122 -97.8214 150° Southeast 190 219 3,900  Level Kansas City Center
09:13 37.9722 -97.7769 139° Southeast 207 238 6,500 2,605 Climbing Kansas City Center
09:14 37.9717 -97.7561 92° East 195 224 7,200 2,051 Climbing Kansas City Center
09:15 37.9889 -97.6811 74° East 219 252 9,200 1,667 Climbing Kansas City Center
09:16 38.0147 -97.5914 70° East 267 307 10,700 1,721 Climbing Kansas City Center
09:17 38.0450 -97.4803 71° East 305 351 12,700 1,869 Climbing Kansas City Center
09:18 38.0719 -97.3833 71° East 326 375 14,500 2,081 Climbing Kansas City Center
09:19 38.1022 -97.2728 71° East 334 384 17,000 2,544 Climbing Kansas City Center
09:20 38.1381 -97.1431 71° East 329 379 19,800 2,226 Climbing Kansas City Center
09:21 38.1672 -97.0347 71° East 324 373 21,600 1,488 Climbing Kansas City Center
09:22 38.1986 -96.9222 70° East 336 387 22,900 1,258 Climbing Kansas City Center
09:23 38.2300 -96.8019 72° East 354 407 24,200 1,230 Climbing Kansas City Center
09:24 38.2639 -96.6797 71° East 363 418 25,400 1,152 Climbing Kansas City Center
09:25 38.2975 -96.5539 71° East 371 427 26,600 1,268 Climbing Kansas City Center
09:26 38.3403 -96.3981 71° East 380 437 28,000 1,161 Climbing Kansas City Center
09:27 38.3725 -96.2719 72° East 386 444 29,000 1,008 Climbing Kansas City Center
09:28 38.4094 -96.1336 71° East 395 455 30,100 1,033 Climbing Kansas City Center
09:29 38.4469 -95.9931 71° East 396 456 31,100 857 Climbing Kansas City Center
09:30 38.4808 -95.8642 71° East 407 468 31,900 816 Climbing Kansas City Center
09:31 38.5231 -95.7003 72° East 419 482 32,800 823 Climbing Kansas City Center
09:32 38.5622 -95.5494 72° East 426 490 33,600 774 Climbing Kansas City Center
09:33 38.5994 -95.4047 72° East 430 495 34,400 836 Climbing Kansas City Center
09:34 38.6400 -95.2478 72° East 432 497 35,300 816 Climbing Kansas City Center
09:35 38.6769 -95.0989 72° East 439 505 36,100 780 Climbing Kansas City Center
09:36 38.7181 -94.9400 72° East 439 505 36,900 836 Climbing Kansas City Center
09:37 38.7550 -94.7917 72° East 442 509 37,800 823 Climbing Kansas City Center
09:38 38.7947 -94.6328 72° East 438 504 38,600 571 Climbing Kansas City Center
09:39 38.8308 -94.4881 72° East 430 495 39,000 192 Climbing Kansas City Center
09:41 38.8692 -94.3311 73° East 429 494 39,000  Level Kansas City Center
09:42 38.9061 -94.1825 72° East 435 501 39,000  Level Kansas City Center
09:43 38.9458 -94.0206 72° East 438 504 39,000  Level Kansas City Center
09:44 38.9825 -93.8694 73° East 442 509 39,000  Level Kansas City Center
09:45 39.0228 -93.7053 72° East 445 512 39,000  Level Kansas City Center
09:46 39.0586 -93.5539 73° East 445 512 39,000  Level Kansas City Center
09:47 39.0939 -93.3964 74° East 445 512 39,000  Level Kansas City Center
09:48 39.1311 -93.2478 72° East 446 513 39,000  Level Kansas City Center
09:49 39.1656 -93.0983 73° East 445 512 39,000  Level Kansas City Center
09:50 39.2000 -92.9483 73° East 444 511 39,000  Level Kansas City Center
09:51 39.2347 -92.7967 73° East 444 511 39,000  Level Kansas City Center
09:52 39.2758 -92.6167 74° East 444 511 39,000  Level Kansas City Center
09:53 39.3097 -92.4672 74° East 443 510 39,000  Level Kansas City Center
09:54 39.3439 -92.3161 74° East 443 510 39,000  Level Kansas City Center
09:55 39.3781 -92.1642 74° East 443 510 39,000  Level Kansas City Center
09:56 39.4183 -91.9792 74° East 446 513 39,000  Level Kansas City Center
09:57 39.4533 -91.8247 74° East 450 518 39,000  Level Kansas City Center
09:58 39.4872 -91.6725 74° East 450 518 39,000  Level Kansas City Center
09:59 39.5206 -91.5153 75° East 450 518 39,000  Level Kansas City Center
10:00 39.5542 -91.3600 74° East 450 518 39,000  Level Kansas City Center
10:01 39.5964 -91.1706 74° East 450 518 39,000  Level Kansas City Center
10:02 39.6297 -91.0161 74° East 450 518 39,000  Level Kansas City Center
10:03 39.6603 -90.8661 75° East 438 504 39,000  Level Kansas City Center
10:04 39.6925 -90.7169 74° East 435 501 39,000  Level Kansas City Center
10:05 39.7228 -90.5661 75° East 433 498 39,000  Level Kansas City Center
10:06 39.7583 -90.3942 75° East 432 497 39,000  Level Kansas City Center
10:07 39.7886 -90.2444 75° East 432 497 39,000  Level Kansas City Center
10:08 39.8206 -90.0925 75° East 432 497 39,000  Level Kansas City Center
10:09 39.8511 -89.9375 76° East 436 502 39,000  Level Kansas City Center
10:10 39.8814 -89.7842 76° East 438 504 39,000 -195 Level Kansas City Center
10:12 39.9131 -89.6289 75° East 440 506 38,600 -774 Descending Kansas City Center
10:13 39.9500 -89.4400 76° East 446 513 37,400 -768 Descending Kansas City Center
10:14 40.0031 -89.2906 65° Northeast 454 522 37,000 -629 Descending Kansas City Center
10:15 40.0700 -89.1494 58° Northeast 460 529 36,100 -1,392 Descending Kansas City Center
10:16 40.1222 -89.0042 65° Northeast 449 517 34,100 -1,920 Descending Kansas City Center
10:16 40.1339 -88.9111 81° East 449 517 32,900 -2,227 Descending Chicago Center
10:17 40.1647 -88.7189 78° East 448 516 30,500 -2,177 Descending Chicago Center
10:18 40.1914 -88.5569 78° East 453 521 28,400 -1,984 Descending Chicago Center
10:19 40.2392 -88.4075 67° East 449 517 26,400 -1,839 Descending Chicago Center
10:20 40.2883 -88.2522 67° East 459 528 24,600 -1,161 Descending Chicago Center
10:21 40.3058 -88.0897 82° East 456 525 24,000 -1,500 Descending Chicago Center
10:22 40.3244 -87.9017 83° East 439 505 21,500 -2,400 Descending Chicago Center
10:24 40.3394 -87.7447 83° East 438 504 19,000 -2,438 Descending Chicago Center
10:24 40.3475 -87.6522 83° East 434 499 17,600 -2,323 Descending Chicago Center
10:25 40.3558 -87.5889 80° East 436 502 16,600 -2,754 Descending Chicago Center
10:25 40.3628 -87.4950 84° East 423 487 14,800 -3,000 Descending Chicago Center
10:26 40.3689 -87.4314 83° East 415 478 13,500 -2,700 Descending Chicago Center
10:26 40.3750 -87.3567 84° East 394 453 12,100 -2,703 Descending Chicago Center
10:27 40.3847 -87.2236 84° East 339 390 9,400 -2,298 Descending Chicago Center
10:28 40.3819 -87.1744 94° East 334 384 8,500 -2,361 Descending Chicago Center
10:28 40.3725 -87.1136 101° East 306 352 7,000 -2,710 Descending Chicago Center
10:29 40.3692 -87.0650 95° East 309 356 5,700 -2,800 Descending Chicago Center
10:29 40.3600 -87.0064 102° East 277 319 4,200 -2,129 Descending Chicago Center
10:30 40.3600 -86.9683 90° East 284 327 3,500 -1,869 Descending Chicago Center
10:30 40.3531 -86.9214 101° East 239 275 2,300 -871 Descending Chicago Center
10:31 40.3500 -86.8578 94° East 277 319 2,600 -400 Climbing Chicago Center
10:31 40.3781 -86.8631 352° North 182 209 1,900 -929 Descending Chicago Center
10:32 40.4044 -86.8892 323° Northwest 129 148 1,300 -590 Descending Chicago Center
10:34 40.4000 -86.9333 298° West  Level FlightAware Approximate
10:41 40.4123 -86.9369 298° West  Level Estimated